Regional Weather Roundup
Issued by NWS Sioux Falls, SD

Home | Current Version | Previous Version | Graphics & Text | Print | Product List | Glossary Off
Versions: 1 2 3 4 5 6 7 8 9 10 11 12 13 14 15 16 17 18 19 20 21 22 23 24 25 26 27 28 29 30 31 32 33 34 35 36 37 38 39 40 41 42 43 44 45 46 47 48 49 50

976
ASUS43 KFSD 260602
RWRFSD

WEATHER ROUNDUP FOR SE SOUTH DAKOTA/SW MINNESOTA/NW IOWA
NATIONAL WEATHER SERVICE SIOUX FALLS SD
100 AM CDT MON JUN 26 2017

NOTE: "FAIR" INDICATES FEW OR NO CLOUDS BELOW 12,000 FEET WITH NO
SIGNIFICANT WEATHER AND OR OBSTRUCTIONS TO VISIBILITY.


SDZ038>040-050-052>070-260700-
SOUTHEAST SOUTH DAKOTA

CITY           SKY/WX    TMP DP  RH WIND       PRES   REMARKS
BROOKINGS      PTCLDY    51  49  92 CALM      30.22S
CHAMBERLAIN    CLEAR     60  49  66 NE8       30.20S
6HR MIN TEMP:  60; 6HR MAX TEMP:  79;

HURON          MOCLDY    55  51  86 CALM      30.22R
6HR MIN TEMP:  55; 6HR MAX TEMP:  73; 6HR PCP:  0.01;

MADISON        CLOUDY    54  54 100 CALM      30.22F
MITCHELL       CLOUDY    58  52  80 NE10      30.22R
6HR MIN TEMP:  58; 6HR MAX TEMP:  75; 6HR PCP:  0.01;

SIOUX FALLS    RAIN      56  54  93 CALM      30.23R
6HR MIN TEMP:  54; 6HR MAX TEMP:  72; 6HR PCP:  0.13;

WINNER         FAIR      60  44  55 NE10      30.19R
YANKTON        CLOUDY    58  49  72 NE8       30.19
$$

MNZ071-072-080-081-089-090-097-098-260700-
SOUTHWEST MINNESOTA

CITY           SKY/WX    TMP DP  RH WIND       PRES   REMARKS
FAIRMONT       CLOUDY    56  48  74 W7        30.18S
JACKSON        CLOUDY    54  50  87 CALM      30.21R
MARSHALL       PTCLDY    51  47  86 W7        30.20R
6HR MIN TEMP:  51; 6HR MAX TEMP:  63;

MONTEVIDEO     CLEAR     52  45  76 NW5       30.19R
PIPESTONE      CLOUDY    55  52  88 SW6       30.21F
REDWOOD FALLS  PTCLDY    54  47  77 W5        30.18R
TRACY          CLOUDY    56  49  78 W5        30.20R
WINDOM         CLOUDY    55  48  76 W6        30.19S
WORTHINGTON    MOCLDY    54  51  90 W7        30.22F
$$

IAZ001>003-012>014-020>022-031-032-NEZ013-014-SDZ071-260700-
NORTHWEST IOWA

CITY           SKY/WX    TMP DP  RH WIND       PRES   REMARKS
CHEROKEE       LGT RAIN  55  50  82 NE5       30.23R
DENISON        CLEAR     50  45  81 CALM      30.20R
ESTHERVILLE    CLOUDY    54  52  93 W12       30.19R
LE MARS        CLOUDY    59  46  63 E7        30.21S
ORANGE CITY    CLOUDY    55  50  82 E5        30.21F
SHELDON        CLOUDY    55  52  88 CALM      30.20F
SIOUX CITY     MOCLDY    60  46  59 N10       30.21R
6HR MIN TEMP:  53; 6HR MAX TEMP:  75;

SPENCER        MOCLDY    56  51  84 NW7       30.22R
6HR MIN TEMP:  55; 6HR MAX TEMP:  71; 6HR PCP:  0.01;

STORM LAKE     CLOUDY    59  45  58 NE12      30.22R
$$

ABBREVIATIONS USED IN REMARKS
   TC - TEMPERATURE IN CELSIUS
  WCI - WIND CHILL INDEX
   HX - HEAT INDEX
  VSB - VISIBILITY





USA.gov is the U.S. government's official web portal to all federal, state and local government web resources and services.